When you browse on this site, cookies collect data to enhance your experience and personalize the content and advertising you see.
Visit our Privacy Policy to learn more. By continuing to use the site, you agree to this use of cookies and data.
  • In Germany
  • List of Countries
  • For 7 days
  • Water Temperature
  • Weather Map
  • Weather Widgets
  • user-avatar
    Login

    Hourly Weather Elbasan

    Today, 22 August, Thursday

    Time Temperature Precipitation Wind Pressure Humidity
    00:00 +25°C° 0 mm 2 mps 737 mmHg 51%
    01:00 +25°C° 0 mm 2 mps 737 mmHg 51%
    02:00 +24°C° 0 mm 2 mps 737 mmHg 50%
    03:00 +24°C° 0 mm 2 mps 737 mmHg 49%
    04:00 +24°C° 0 mm 2 mps 737 mmHg 48%
    05:00 +26°C° 0 mm 2 mps 737 mmHg 44%
    06:00 +27°C° 0 mm 1 mps 738 mmHg 39%
    07:00 +30°C° 0 mm 2 mps 738 mmHg 34%
    08:00 +32°C° 0 mm 2 mps 738 mmHg 30%
    09:00 +35°C° 0 mm 2 mps 738 mmHg 26%
    10:00 +37°C° 0 mm 2 mps 738 mmHg 21%
    11:00 +37°C° 0 mm 2 mps 738 mmHg 21%
    12:00 +38°C° 0 mm 3 mps 738 mmHg 20%
    13:00 +38°C° 0 mm 4 mps 738 mmHg 20%
    14:00 +38°C° 0 mm 4 mps 738 mmHg 22%
    15:00 +37°C° 0 mm 4 mps 737 mmHg 24%
    16:00 +36°C° 0 mm 4 mps 737 mmHg 27%
    17:00 +33°C° 0 mm 3 mps 737 mmHg 35%
    18:00 +30°C° 0 mm 2 mps 737 mmHg 43%
    19:00 +27°C° 0 mm 1 mps 737 mmHg 51%
    20:00 +26°C° 0 mm 1 mps 737 mmHg 51%
    21:00 +26°C° 0 mm 1 mps 738 mmHg 51%
    22:00 +26°C° 0 mm 1 mps 738 mmHg 52%
    23:00 +25°C° 0 mm 1 mps 738 mmHg 50%

    Tomorrow, 23 August, Friday

    Time Temperature Precipitation Wind Pressure Humidity
    00:00 +25°C° 0 mm 2 mps 738 mmHg 48%
    01:00 +25°C° 0 mm 2 mps 738 mmHg 46%
    02:00 +25°C° 0 mm 2 mps 738 mmHg 46%
    03:00 +25°C° 0 mm 2 mps 738 mmHg 45%
    04:00 +25°C° 0 mm 2 mps 738 mmHg 45%
    05:00 +27°C° 0 mm 2 mps 738 mmHg 41%
    06:00 +28°C° 0 mm 1 mps 738 mmHg 37%
    07:00 +30°C° 0 mm 1 mps 738 mmHg 33%
    08:00 +33°C° 0 mm 1 mps 738 mmHg 29%
    09:00 +36°C° 0 mm 2 mps 739 mmHg 26%
    10:00 +38°C° 0 mm 2 mps 739 mmHg 22%
    11:00 +38°C° 0 mm 2 mps 738 mmHg 22%
    12:00 +38°C° 0 mm 3 mps 738 mmHg 22%
    13:00 +38°C° 0 mm 3 mps 737 mmHg 21%
    14:00 +37°C° 0 mm 3 mps 737 mmHg 24%
    15:00 +36°C° 0 mm 2 mps 737 mmHg 26%
    16:00 +35°C° 0 mm 2 mps 737 mmHg 28%
    17:00 +32°C° 0 mm 2 mps 736 mmHg 33%
    18:00 +30°C° 0 mm 1 mps 736 mmHg 37%
    19:00 +26°C° 0 mm 0 mps 736 mmHg 42%
    20:00 +26°C° 0 mm 0 mps 737 mmHg 42%
    21:00 +28°C° 0 mm 1 mps 737 mmHg 42%
    22:00 +28°C° 0 mm 1 mps 737 mmHg 42%
    23:00 +27°C° 0 mm 1 mps 737 mmHg 43%

    Day after tomorrow, 24 August, Saturday

    Time Temperature Precipitation Wind Pressure Humidity
    00:00 +27°C° 0 mm 1 mps 737 mmHg 45%
    01:00 +26°C° 0 mm 1 mps 737 mmHg 46%
    02:00 +26°C° 0 mm 1 mps 737 mmHg 47%
    03:00 +26°C° 0 mm 2 mps 737 mmHg 47%
    04:00 +26°C° 0 mm 2 mps 737 mmHg 48%
    05:00 +27°C° 0 mm 2 mps 737 mmHg 44%
    06:00 +29°C° 0 mm 2 mps 737 mmHg 40%
    07:00 +30°C° 0 mm 2 mps 737 mmHg 37%
    08:00 +32°C° 0 mm 2 mps 737 mmHg 33%
    09:00 +35°C° 0 mm 2 mps 737 mmHg 29%
    10:00 +37°C° 0 mm 2 mps 737 mmHg 25%
    11:00 +37°C° 0 mm 2 mps 737 mmHg 26%
    12:00 +36°C° 0 mm 2 mps 736 mmHg 28%
    13:00 +35°C° 0 mm 3 mps 736 mmHg 30%
    14:00 +35°C° 0.1 mm 3 mps 736 mmHg 33%
    15:00 +34°C° 0.1 mm 3 mps 736 mmHg 36%
    16:00 +33°C° 0.1 mm 3 mps 736 mmHg 39%
    17:00 +31°C° 0.1 mm 3 mps 736 mmHg 43%
    18:00 +29°C° 0.1 mm 2 mps 736 mmHg 47%
    19:00 +28°C° 0.1 mm 2 mps 736 mmHg 52%
    20:00 +27°C° 0.2 mm 2 mps 736 mmHg 53%
    21:00 +27°C° 0.2 mm 2 mps 736 mmHg 55%
    22:00 +26°C° 0.2 mm 2 mps 736 mmHg 57%
    23:00 +25°C° 0 mm 2 mps 736 mmHg 58%

    25 August, Sunday

    Time Temperature Precipitation Wind Pressure Humidity
    00:00 +25°C° 0 mm 2 mps 736 mmHg 58%
    01:00 +24°C° 0 mm 2 mps 736 mmHg 59%
    02:00 +24°C° 0 mm 2 mps 736 mmHg 59%
    03:00 +24°C° 0 mm 2 mps 735 mmHg 59%
    04:00 +24°C° 0 mm 2 mps 735 mmHg 59%
    05:00 +25°C° 0 mm 2 mps 736 mmHg 54%
    06:00 +27°C° 0 mm 2 mps 736 mmHg 49%
    07:00 +29°C° 0 mm 2 mps 736 mmHg 45%
    08:00 +31°C° 0 mm 2 mps 736 mmHg 38%
    09:00 +34°C° 0 mm 1 mps 736 mmHg 32%
    10:00 +36°C° 0 mm 1 mps 736 mmHg 25%
    11:00 +37°C° 0 mm 2 mps 736 mmHg 26%
    12:00 +37°C° 0 mm 3 mps 736 mmHg 26%
    13:00 +37°C° 0 mm 3 mps 735 mmHg 27%
    14:00 +35°C° 0.2 mm 3 mps 735 mmHg 32%
    15:00 +34°C° 0.2 mm 3 mps 735 mmHg 37%
    16:00 +33°C° 0.2 mm 3 mps 735 mmHg 42%
    17:00 +29°C° 0.3 mm 3 mps 735 mmHg 49%
    18:00 +27°C° 0.3 mm 2 mps 735 mmHg 56%
    19:00 +25°C° 0.3 mm 2 mps 735 mmHg 63%
    20:00 +25°C° 0.2 mm 2 mps 736 mmHg 66%
    21:00 +24°C° 0.2 mm 2 mps 736 mmHg 70%
    22:00 +24°C° 0.2 mm 3 mps 736 mmHg 73%
    23:00 +24°C° 0 mm 3 mps 736 mmHg 72%

    26 August, Monday

    Time Temperature Precipitation Wind Pressure Humidity
    00:00 +22°C° 0 mm 3 mps 735 mmHg 71%
    01:00 +23°C° 0 mm 2 mps 735 mmHg 70%
    02:00 +23°C° 0 mm 2 mps 735 mmHg 68%
    03:00 +23°C° 0 mm 2 mps 735 mmHg 67%
    04:00 +23°C° 0 mm 2 mps 735 mmHg 66%
    05:00 +24°C° 0 mm 2 mps 735 mmHg 62%
    06:00 +26°C° 0 mm 2 mps 735 mmHg 57%
    07:00 +27°C° 0 mm 2 mps 735 mmHg 53%
    08:00 +29°C° 0 mm 2 mps 736 mmHg 45%
    09:00 +32°C° 0 mm 2 mps 736 mmHg 37%
    10:00 +35°C° 0 mm 2 mps 736 mmHg 29%
    11:00 +35°C° 0 mm 2 mps 736 mmHg 28%
    12:00 +36°C° 0 mm 3 mps 736 mmHg 27%
    13:00 +36°C° 0 mm 3 mps 735 mmHg 26%
    14:00 +35°C° 0.2 mm 3 mps 735 mmHg 33%
    15:00 +33°C° 0.2 mm 3 mps 735 mmHg 39%
    16:00 +30°C° 0.2 mm 2 mps 735 mmHg 46%
    17:00 +28°C° 0 mm 2 mps 735 mmHg 50%
    18:00 +27°C° 0 mm 2 mps 735 mmHg 55%
    19:00 +25°C° 0 mm 2 mps 735 mmHg 60%
    20:00 +25°C° 0 mm 2 mps 736 mmHg 61%
    21:00 +24°C° 0 mm 2 mps 736 mmHg 62%
    22:00 +24°C° 0 mm 2 mps 736 mmHg 63%
    23:00 +24°C° 0 mm 2 mps 736 mmHg 63%

    27 August, Tuesday

    Time Temperature Precipitation Wind Pressure Humidity
    00:00 +24°C° 0 mm 2 mps 736 mmHg 63%
    01:00 +23°C° 0 mm 2 mps 735 mmHg 63%
    02:00 +23°C° 0 mm 2 mps 735 mmHg 63%
    03:00 +23°C° 0 mm 2 mps 735 mmHg 63%
    04:00 +23°C° 0 mm 2 mps 735 mmHg 63%
    05:00 +25°C° 0 mm 2 mps 735 mmHg 57%
    06:00 +26°C° 0 mm 2 mps 735 mmHg 52%
    07:00 +28°C° 0 mm 1 mps 736 mmHg 47%
    08:00 +30°C° 0 mm 1 mps 736 mmHg 40%
    09:00 +33°C° 0 mm 1 mps 736 mmHg 34%
    10:00 +35°C° 0 mm 1 mps 736 mmHg 28%
    11:00 +35°C° 0.1 mm 2 mps 736 mmHg 31%
    12:00 +34°C° 0.1 mm 3 mps 736 mmHg 35%
    13:00 +33°C° 0.1 mm 3 mps 735 mmHg 38%
    14:00 +30°C° 0.5 mm 3 mps 735 mmHg 45%
    15:00 +28°C° 0.5 mm 3 mps 735 mmHg 52%
    16:00 +27°C° 0.5 mm 3 mps 735 mmHg 59%
    17:00 +26°C° 0.1 mm 3 mps 735 mmHg 61%
    18:00 +25°C° 0.1 mm 3 mps 735 mmHg 64%
    19:00 +24°C° 0.1 mm 3 mps 736 mmHg 66%
    20:00 +24°C° 0 mm 2 mps 736 mmHg 67%
    21:00 +23°C° 0 mm 2 mps 736 mmHg 68%
    22:00 +23°C° 0 mm 2 mps 736 mmHg 69%
    23:00 +23°C° 0 mm 2 mps 736 mmHg 68%
    Show more